FW2498 Weather Reports


Display with metric or nautical units.
time (UTC)temp
F
wind
direction
speed
MPH
gust
MPH
rain 1hr
in
rain 24hr
in
rain mn
in
humidity
%
barometer
mb
20260509063038 46 42 5.0 7.0 0.00 0.00 0.00 80 1010.5
20260509061536 48 38 4.0 8.0 0.00 0.00 0.00 77 1010.4
20260509060036 49 48 0.0 7.0 0.00 0.00 0.00 74 1010.2
20260509054531 50 56 3.0 6.0 0.00 0.00 0.00 72 1009.8
20260509053029 50 63 3.0 5.0 0.00 0.00 0.00 71 1009.4
20260509051528 50 56 3.0 6.0 0.00 0.00 0.00 70 1009.2
20260509050043 51 54 3.0 9.0 0.00 0.00 0.00 68 1009.0
20260509044526 51 59 6.0 10.0 0.00 0.00 0.00 67 1008.8
20260509043025 52 45 6.0 10.0 0.00 0.00 0.00 63 1008.6
20260509041525 53 53 6.0 15.0 0.00 0.00 0.00 62 1008.5
20260509040025 53 83 8.0 12.0 0.00 0.00 0.00 61 1008.4
20260509034525 54 57 5.0 14.0 0.00 0.00 0.00 59 1008.3
20260509033024 55 67 6.0 14.0 0.00 0.00 0.00 58 1008.2
20260509031531 57 63 11.0 19.0 0.00 0.00 0.00 51 1008.2
20260509030031 58 27 20.0 25.0 0.00 0.00 0.00 48 1008.0
20260509024534 59 32 16.0 23.0 0.00 0.00 0.00 47 1007.5
20260509023021 59 42 20.0 25.0 0.00 0.00 0.00 47 1007.5
20260509021521 60 15 11.0 18.0 0.00 0.00 0.00 47 1007.6
20260509020021 60 11 12.0 20.0 0.00 0.00 0.00 49 1007.5
20260509014520 60 5 12.0 15.0 0.00 0.00 0.00 53 1007.2
20260509013025 61 21 13.0 16.0 0.00 0.00 0.00 51 1006.8
20260509011519 61 33 16.0 21.0 0.00 0.00 0.00 50 1006.7
20260509010022 62 14 16.0 24.0 0.00 0.00 0.00 51 1006.9
20260509004519 63 344 11.0 19.0 0.00 0.00 0.00 48 1007.0
20260509003016 64 27 11.0 15.0 0.00 0.00 0.00 45 1006.0
20260509001516 66 12 8.0 12.0 0.00 0.00 0.00 42 1005.8
20260509000016 68 359 11.0 26.0 0.00 0.00 0.00 38 1006.2
20260508234515 68 262 14.0 36.0 0.00 0.00 0.00 33 1006.4
20260508233011 69 304 10.0 17.0 0.00 0.00 0.00 29 1006.1
20260508231510 70 328 7.0 11.0 0.00 0.00 0.00 29 1006.0
20260508230008 70 299 8.0 16.0 0.00 0.00 0.00 28 1006.2
20260508224507 70 302 13.0 21.0 0.00 0.00 0.00 29 1006.5
20260508223009 69 296 11.0 17.0 0.00 0.00 0.00 30 1006.7
20260508221501 68 316 9.0 17.0 0.00 0.00 0.00 31 1007.2
20260508220100 67 348 9.0 16.0 0.00 0.00 0.00 35 1007.5
20260508214610 66 301 11.0 26.0 0.00 0.00 0.00 35 1007.7
20260508213116 64 296 27.0 40.0 0.00 0.00 0.00 37 1008.0
20260508211559 69 314 23.0 28.0 0.00 0.00 0.00 28 1008.0
20260508210054 69 301 16.0 24.0 0.00 0.00 0.00 26 1008.0
20260508204604 68 263 20.0 26.0 0.00 0.00 0.00 27 1008.1
20260508203057 69 256 17.0 25.0 0.00 0.00 0.00 27 1008.3
20260508201601 69 270 20.0 26.0 0.00 0.00 0.00 26 1008.4
20260508200100 70 290 21.0 30.0 0.00 0.00 0.00 24 1008.4
20260508194548 69 262 17.0 27.0 0.00 0.00 0.00 27 1008.7
20260508193044 69 282 19.0 28.0 0.00 0.00 0.00 25 1009.0
20260508191540 68 303 25.0 33.0 0.00 0.00 0.00 24 1009.2
20260508190044 68 300 15.0 31.0 0.00 0.00 0.00 25 1009.3
20260508184537 69 260 18.0 30.0 0.00 0.00 0.00 26 1009.5
20260508183037 68 262 18.0 31.0 0.00 0.00 0.00 28 1009.6
20260508181549 68 279 15.0 29.0 0.00 0.00 0.00 27 1010.0
20260508180028 66 250 15.0 26.0 0.00 0.00 0.00 28 1010.3
20260508174529 66 250 10.0 20.0 0.00 0.00 0.00 28 1010.5
20260508173023 66 250 15.0 19.0 0.00 0.00 0.00 27 1010.8
20260508171521 65 229 14.0 17.0 0.00 0.00 0.00 28 1010.9
20260508170022 65 231 12.0 20.0 0.00 0.00 0.00 31 1011.0
20260508164527 64 277 14.0 20.0 0.00 0.00 0.00 29 1011.3
20260508163012 63 235 11.0 17.0 0.00 0.00 0.00 31 1011.5
20260508161510 62 233 9.0 16.0 0.00 0.00 0.00 33 1011.6
20260508160008 61 206 11.0 16.0 0.00 0.00 0.00 35 1011.7
20260508154502 60 216 7.0 12.0 0.00 0.00 0.00 37 1011.8
20260508153100 58 203 6.0 12.0 0.00 0.00 0.00 37 1012.1
20260508151552 57 264 8.0 13.0 0.00 0.00 0.00 38 1012.2
20260508150047 57 250 10.0 12.0 0.00 0.00 0.00 40 1012.2
20260508144543 56 250 11.0 13.0 0.00 0.00 0.00 40 1012.2
20260508143039 55 250 12.0 14.0 0.00 0.00 0.00 44 1012.3
20260508141546 54 234 10.0 12.0 0.00 0.00 0.00 43 1012.3
20260508140029 52 226 8.0 12.0 0.00 0.00 0.00 46 1012.4
20260508134525 51 226 9.0 12.0 0.00 0.00 0.00 47 1012.5
20260508133022 49 231 6.0 9.0 0.00 0.00 0.00 48 1012.4
20260508131517 48 229 9.0 11.0 0.00 0.00 0.00 48 1012.4
20260508130012 46 267 8.0 10.0 0.00 0.00 0.00 48 1012.3
20260508124507 43 269 2.0 4.0 0.00 0.00 0.00 57 1012.2
20260508123004 42 269 2.0 4.0 0.00 0.00 0.00 55 1012.0
20260508121611 42 224 3.0 5.0 0.00 0.00 0.00 56 1012.1
20260508120101 42 277 4.0 9.0 0.00 0.00 0.00 56 1011.9
20260508114553 45 298 8.0 9.0 0.00 0.00 0.00 52 1011.7
20260508113056 46 315 6.0 8.0 0.00 0.00 0.00 49 1011.4
20260508111557 45 309 4.0 5.0 0.00 0.00 0.00 52 1011.3
20260508110057 42 295 3.0 5.0 0.00 0.00 0.00 60 1011.2
20260508104545 42 294 4.0 6.0 0.00 0.00 0.00 60 1011.0
20260508103053 43 305 3.0 8.0 0.00 0.00 0.00 62 1011.0
20260508101543 43 309 6.0 9.0 0.00 0.00 0.00 64 1010.7
20260508100037 43 325 8.0 10.0 0.00 0.00 0.00 63 1010.5
20260508094544 44 318 9.0 11.0 0.00 0.00 0.00 64 1010.4
20260508093032 45 319 9.0 12.0 0.00 0.00 0.00 64 1010.0
20260508091529 45 304 11.0 15.0 0.00 0.00 0.00 66 1010.0
20260508090034 46 308 12.0 15.0 0.00 0.00 0.00 65 1009.9
20260508084528 48 301 12.0 16.0 0.00 0.00 0.00 63 1009.5
20260508083022 49 300 16.0 21.0 0.00 0.00 0.00 63 1009.3
20260508081520 48 271 13.0 16.0 0.00 0.00 0.00 67 1009.0
20260508080019 48 250 16.0 19.0 0.00 0.00 0.00 70 1009.0
20260508074517 47 254 16.0 19.0 0.00 0.00 0.00 71 1008.9
20260508073016 46 240 13.0 16.0 0.00 0.00 0.00 72 1008.8
20260508071513 46 240 13.0 15.0 0.00 0.00 0.00 70 1008.9
20260508070011 47 250 12.0 15.0 0.00 0.00 0.00 69 1008.9
20260508064508 46 250 11.0 13.0 0.00 0.00 0.00 67 1009.0